FW4272 Weather Reports


Display with metric or nautical units.
time (UTC)temp
F
wind
direction
speed
MPH
gust
MPH
rain 1hr
in
rain 24hr
in
rain mn
in
humidity
%
barometer
mb
20260505073027 46 209 12.0 22.0 0.00 0.11 0.00 78 1009.0
20260505071542 46 210 12.0 23.0 0.00 0.11 0.00 78 1008.8
20260505070020 47 204 13.0 26.0 0.00 0.11 0.00 77 1008.6
20260505064524 47 208 19.0 26.0 0.00 0.19 0.00 78 1008.5
20260505063017 47 209 16.0 29.0 0.00 0.19 0.00 78 1008.1
20260505061515 46 203 16.0 30.0 0.00 0.19 0.00 78 1007.9
20260505060013 46 227 18.0 29.0 0.00 0.19 0.00 78 1007.8
20260505054510 46 215 19.0 26.0 0.00 0.24 0.00 78 1007.4
20260505053005 46 210 18.0 29.0 0.00 0.24 0.00 77 1007.2
20260505051600 47 221 20.0 27.0 0.00 0.24 0.00 77 1007.0
20260505041533 47 229 15.0 27.0 0.00 0.25 0.00 75 1006.2
20260505040036 48 241 15.0 27.0 0.00 0.25 0.00 75 1006.2
20260505034522 48 214 16.0 31.0 0.00 0.25 0.00 73 1005.8
20260505033018 49 222 20.0 32.0 0.00 0.25 0.00 73 1005.7
20260505031509 49 210 20.0 32.0 0.00 0.25 0.00 72 1005.5
20260505030005 49 217 21.0 34.0 0.00 0.25 0.25 71 1005.3
20260505024501 50 215 23.0 38.0 0.00 0.25 0.25 70 1005.0
20260505023109 50 215 23.0 37.0 0.00 0.25 0.25 69 1004.9
20260505021601 51 213 22.0 35.0 0.00 0.25 0.25 67 1004.8
20260505020059 50 213 26.0 39.0 0.00 0.25 0.25 66 1004.6
20260505014558 51 202 23.0 35.0 0.00 0.25 0.25 66 1004.6
20260505013054 51 227 25.0 37.0 0.00 0.25 0.25 64 1004.4
20260505011555 51 212 21.0 36.0 0.00 0.25 0.25 65 1004.1
20260505010101 52 210 17.0 26.0 0.00 0.25 0.25 63 1003.9
20260505004552 52 210 22.0 35.0 0.00 0.25 0.25 62 1004.0
20260505003049 52 207 21.0 28.0 0.00 0.25 0.25 61 1003.8
20260505001548 52 236 18.0 27.0 0.00 0.25 0.25 62 1003.5
20260505000047 52 190 17.0 32.0 0.00 0.25 0.25 60 1003.2
20260504234544 51 195 21.0 31.0 0.00 0.28 0.25 60 1002.8
20260504233044 51 214 15.0 33.0 0.00 0.28 0.25 56 1002.7
20260504231542 51 213 27.0 37.0 0.00 0.28 0.25 52 1002.9
20260504230039 52 236 23.0 32.0 0.00 0.28 0.25 50 1002.5
20260504224537 51 196 15.0 21.0 0.00 0.31 0.25 55 1002.4
20260504223036 51 231 18.0 30.0 0.00 0.31 0.25 53 1002.1
20260504221537 52 219 18.0 30.0 0.00 0.31 0.25 51 1002.1
20260504220034 52 208 18.0 28.0 0.00 0.31 0.25 51 1002.1
20260504214539 52 222 20.0 31.0 0.00 0.35 0.25 50 1002.0
20260504213031 52 212 19.0 27.0 0.00 0.35 0.25 51 1001.9
20260504211528 52 246 21.0 34.0 0.00 0.35 0.25 51 1001.8
20260504210025 51 212 19.0 33.0 0.00 0.35 0.25 53 1001.5
20260504204522 51 231 22.0 33.0 0.00 0.39 0.25 53 1001.4
20260504203019 50 219 20.0 31.0 0.00 0.39 0.25 57 1001.4
20260504201518 50 206 21.0 33.0 0.00 0.39 0.25 58 1001.1
20260504200032 50 241 22.0 35.0 0.00 0.39 0.25 60 1001.0
20260504194520 50 223 22.0 41.0 0.00 0.45 0.25 59 1000.5
20260504193013 50 226 24.0 38.0 0.00 0.45 0.25 62 1000.3
20260504191520 49 220 25.0 39.0 0.00 0.45 0.25 65 1000.3
20260504190011 48 211 26.0 35.0 0.00 0.45 0.25 68 1000.1
20260504184512 48 223 23.0 34.0 0.00 0.48 0.25 72 999.9
20260504183111 48 241 25.0 37.0 0.00 0.48 0.25 72 999.8
20260504181501 48 241 26.0 40.0 0.00 0.48 0.25 73 999.5
20260504180059 47 225 31.0 42.0 0.00 0.48 0.25 74 999.4
20260504174606 47 236 31.0 43.0 0.00 0.48 0.25 76 999.2
20260504173057 45 241 26.0 41.0 0.00 0.48 0.25 79 999.0
20260504171550 45 223 29.0 39.0 0.00 0.48 0.25 80 998.8
20260504081513 37 214 24.0 38.0 0.00 0.37 0.14 94 980.0